#timestamp,LO_Frequency,Hit,StdDev 
1512090015.4,286046997.9,N
1512090035.2,286046995.8,N
1512090055.0,286046993.5,N
1512090055.9,286046993.5,N
1512090075.8,286046992.8,N
1512090095.6,286046994.3,N
1512090115.4,286046996.0,N
1512090135.3,286046997.1,N
1512090155.1,286047000.2,N
1512090156.0,286047000.2,N
1512090175.8,286047004.1,N
1512090195.7,286047004.4,N
1512090215.5,286047000.7,N
1512090235.3,286046999.1,N
1512090255.2,286046995.3,N
1512090275.9,286046997.0,N
1512090295.7,286046995.0,N
1512090315.5,286046998.7,N
1512090335.4,286046998.1,N
1512090355.2,286046998.8,N
1512090375.0,286046996.2,N
1512090375.9,286046996.2,N
1512090395.8,286046995.5,N
1512090415.6,286046995.7,N
1512090435.4,286046993.8,N
1512090455.3,286046993.9,N
1512090475.1,286046998.0,N
1512090476.0,286046998.0,N
1512090495.8,286046998.6,N
1512090515.7,286046998.8,N
1512090535.5,286046997.1,N
1512090555.3,286046996.2,N
1512090575.2,286046994.2,N
1512090595.9,286046991.5,Y
1512090615.7,286046992.8,P
1512090635.6,286046993.5,N
1512090655.4,286046993.9,P
1512090675.2,286046992.8,Y
1512090695.1,286046996.7,P
1512090696.0,286046996.7,N
1512090715.8,286047007.5,P
1512090735.6,286047006.5,N
1512090755.5,286047008.5,N
1512090775.3,286047010.0,N
1512090795.1,286047013.6,N
1512090815.8,286047014.2,N
1512090835.7,286047019.8,N
1512090855.5,286047016.2,N
1512090875.3,286047018.6,N
1512090895.2,286047015.7,N
1512090915.0,286047023.1,N
1512090915.9,286047023.1,N
1512090935.7,286047029.6,Y
1512090955.6,286047019.2,P
1512090975.4,286047019.1,P
1512090995.2,286047020.5,P
1512091015.1,286047026.1,Y
1512091016.0,286047026.1,P
1512091035.8,286047009.2,N
1512091055.6,286047005.3,N
1512091075.5,286047005.1,N
1512091095.3,286047009.6,N
1512091115.1,286047009.5,N
1512091135.9,286047010.3,N
1512091155.7,286047014.0,N
1512091175.5,286047014.4,N
1512091195.4,286047019.3,Y
1512091215.2,286047007.1,P
1512091235.0,286047009.7,P
1512091235.9,286047009.7,P
1512091255.8,286047014.9,Y
1512091275.6,286047006.2,P
1512091295.4,286047009.2,P
1512091315.3,286047005.7,P
1512091335.1,286047007.0,Y
1512091355.8,286046996.9,P
1512091375.7,286047000.7,N
1512091395.5,286047000.8,N
1512091415.3,286047001.5,N
1512091435.2,286047000.5,N
1512091455.9,286047000.3,N
1512091475.7,286046999.2,N
1512091495.6,286046995.2,N
1512091515.4,286046997.1,N
1512091535.2,286046999.1,N
1512091555.0,286047002.6,N
1512091556.0,286047002.6,N
1512091575.8,286047007.2,N
1512091595.6,286047003.4,N
1512091615.4,286046999.3,N
1512091635.3,286046996.0,N
1512091655.1,286046998.0,N
1512091675.8,286046998.3,N
1512091695.7,286047002.4,N
1512091715.5,286047000.8,N
1512091735.3,286047000.9,N
1512091755.2,286046997.3,N
1512091775.9,286046995.7,N
1512091795.7,286046995.2,N
1512091815.6,286046994.4,N
1512091835.4,286046998.0,N
1512091855.2,286046996.0,N
1512091875.0,286046994.8,N
1512091875.9,286046994.8,N
1512091895.8,286046996.0,N
1512091915.6,286046992.3,N
1512091935.4,286046993.2,N
1512091955.3,286046991.5,N
1512091975.1,286046987.4,Y
1512091995.8,286046991.4,P
1512092015.7,286046991.6,N
1512092035.5,286046992.7,N
1512092055.3,286046991.0,Y
1512092075.2,286046993.8,P
1512092095.0,286046992.0,P
1512092095.9,286046992.0,P
1512092115.8,286046991.5,Y
1512092135.6,286046996.9,P
1512092155.4,286046997.1,N
1512092175.2,286046995.3,N
1512092195.1,286046994.1,Y
1512092196.0,286046994.1,P
1512092215.8,286046994.5,P
1512092235.6,286046992.4,P
1512092255.5,286046995.2,Y
1512092275.3,286047004.2,P
1512092295.1,286047001.4,N
1512092315.9,286047002.8,N
1512092335.7,286047002.6,N
1512092355.5,286046997.6,N
1512092375.4,286046997.0,N
1512092395.2,286046995.4,N
1512092415.0,286046995.3,N
1512092415.9,286046995.3,N
1512092435.8,286046994.2,N
1512092455.6,286046997.8,N
1512092475.4,286046995.7,N
1512092495.3,286046996.5,N
1512092515.1,286046994.9,N
1512092516.0,286046994.9,N
1512092535.8,286046998.0,N
1512092555.7,286046992.5,N
1512092575.5,286046994.1,N
1512092595.3,286046992.5,N
1512092615.1,286046990.7,N
1512092635.9,286046991.2,N
1512092655.7,286046991.9,N
1512092675.5,286046994.2,N
1512092695.4,286046994.6,N
1512092715.2,286046993.2,N
1512092735.0,286046992.0,N
1512092735.9,286046992.0,N
1512092755.8,286046990.7,N
1512092775.6,286046989.2,Y
1512092795.4,286046993.1,P
1512092815.3,286046990.5,P
1512092835.1,286046991.1,P
1512092836.0,286046991.1,Y
1512092855.8,286046997.3,P
1512092875.7,286046999.1,N
1512092895.5,286047004.0,N
1512092915.3,286047005.4,N
1512092935.2,286047005.8,N
1512092955.9,286047001.3,N
1512092975.7,286047007.0,N
1512092995.6,286047008.1,N
1512093015.4,286047005.8,N
1512093035.2,286047004.0,N
1512093055.0,286047001.3,N
1512093056.0,286047001.3,N
1512093075.8,286046999.8,N
1512093095.6,286046998.4,N
1512093115.4,286046995.3,N
1512093135.3,286046995.3,N
1512093155.1,286046994.0,N
1512093175.8,286046993.7,N
1512093195.7,286046995.3,N
1512093215.5,286046997.1,N
1512093235.3,286046997.6,N
1512093255.2,286046993.8,N
1512093275.9,286046992.1,N
1512093295.7,286046991.0,N
1512093315.5,286046992.2,N
1512093335.4,286046994.5,N
1512093355.2,286046995.0,N
1512093375.0,286046992.9,N
1512093375.9,286046992.9,N
1512093395.8,286046995.9,N
1512093415.6,286046993.0,N
1512093435.4,286046994.6,N
1512093455.3,286046991.5,N
1512093475.1,286046987.0,N
1512093476.0,286046987.0,N
1512093495.8,286046994.8,N
1512093515.7,286046993.7,N
1512093535.5,286046993.3,N
1512093555.3,286046991.9,N
1512093575.2,286046990.4,N
1512093595.9,286046989.6,Y
